Simultaneous Nadir Overpasses (SNOs) Predictions

Prediction of SNOs between AQUA and GOES-15 Satellite Orbit:

Table of predicted SNOs for the next 14.0 days since TLE Epoch: 7/26/2018
Index Date Time (AQUA) AQUA Lat,Lon GOES-15 Lat,Lon Distance(km) Time Diff (sec)
1 07/28/2018 10:32:51 -0.53,-134.32 -0.26,-135.47 132.00 80
2 07/28/2018 22:54:16 -0.56,-139.52 0.28,-135.49 457.20 80
3 07/30/2018 10:20:43 -1.13,-131.37 -0.25,-135.46 464.33 80
4 07/30/2018 22:42:08 0.05,-136.57 0.27,-135.47 124.83 80
5 08/01/2018 22:30:00 0.66,-133.63 0.27,-135.45 206.99 80
6 08/02/2018 10:51:16 0.45,-138.79 -0.29,-135.42 383.45 80
7 08/04/2018 10:39:09 -0.22,-135.86 -0.29,-135.39 52.61 80
8 08/06/2018 10:27:02 -0.83,-132.92 -0.29,-135.35 277.40 80
9 08/06/2018 22:48:25 -0.30,-138.10 0.31,-135.36 312.91 80
10 08/08/2018 22:36:18 0.38,-135.17 0.32,-135.31 16.26 80




NCC Satellite Simultaneous Nadir Overpasses (SNOs) Prediction Service
